,

(GMT )
Al Udeid

Weather History for KQIR - October, 2012

Change the Weather History Date:

Tuesday, October 9, 2012

  Actual Average Record
Temperature  
Mean Temperature 88 °F -  
Max Temperature 102 °F - - ()
Min Temperature 73 °F - - ()
Cooling Degree Days 22    
Growing Degree Days 38 (Base 50)    
Moisture  
Dew Point 66 °F    
Average Humidity 58    
Maximum Humidity 86    
Minimum Humidity 14    
Precipitation  
Precipitation 0.00 in - - ()
Sea Level Pressure  
Sea Level Pressure 29.84 in    
Wind  
Wind Speed 3 mph ()    
Max Wind Speed 13 mph    
Max Gust Speed -    
Visibility 6.1 miles    
Events      
T = Trace of Precipitation, MM = Missing Value Source: Averaged Metar Reports

Daily Weather History Graph

Daily Weather History Graph

Search for Another Location

Airport or City:

Trip Planner

Search our weather history database for the weather conditions in past years. The results will help you decide how hot, cold, wet, or windy it might be!

Date:

Astronomy

Oct. 09, 2012 Rise Set
Actual Time 5:30 AM AST 5:13 PM AST
Civil Twilight 5:07 AM AST 5:36 PM AST
Nautical Twilight 4:40 AM AST 6:02 PM AST
Astronomical Twilight 4:14 AM AST 6:29 PM AST
Moon No Moon Rise 12:51 PM AST (10/9)
Length of Visible Light 12h 28m
Length of Day
11h 42m
Last Quarter, 40% of the Moon is Illuminated
Oct 9
Last Quarter
Oct 15
New
Oct 22
First Quarter
Oct 29
Full
Nov 7
Last Quarter

Hourly Weather History & Observations

Time (AST) Temp. Heat Index Dew Point Humidity Pressure Visibility Wind Dir Wind Speed Gust Speed Precip Events Conditions
12:55 AM 82.2 °F 88.0 °F 73.8 °F 75% 29.83 in 6.2 mi Calm Calm - N/A   Clear
1:55 AM 77.5 °F - 70.5 °F 79% 29.82 in 6.2 mi Calm Calm - N/A   Clear
2:55 AM 75.7 °F - 69.6 °F 81% 29.82 in 6.2 mi Calm Calm - N/A   Clear
3:55 AM 75.0 °F - 68.9 °F 81% 29.82 in 6.2 mi South 3.5 mph - N/A   Clear
4:55 AM 73.2 °F - 68.2 °F 84% 29.83 in 5.6 mi WSW 5.8 mph - N/A   Haze
5:55 AM 73.0 °F - 68.5 °F 86% 29.85 in 5.0 mi WSW 3.5 mph - N/A   Haze
6:55 AM 77.9 °F - 73.0 °F 85% 29.87 in 5.6 mi Calm Calm - N/A   Haze
7:55 AM 84.2 °F 93.4 °F 76.5 °F 77% 29.89 in 6.2 mi Calm Calm - N/A   Clear
8:55 AM 89.8 °F 104.6 °F 78.3 °F 69% 29.90 in 6.2 mi SSE 3.5 mph - N/A   Clear
9:55 AM 92.3 °F 103.4 °F 75.0 °F 57% 29.89 in 6.2 mi ESE 5.8 mph - N/A   Clear
10:55 AM 96.3 °F 102.6 °F 69.4 °F 42% 29.87 in 6.2 mi Calm Calm - N/A   Clear
11:55 AM 100.0 °F 103.0 °F 64.2 °F 31% 29.84 in 6.2 mi NE 4.6 mph - N/A   Clear
12:55 PM 101.5 °F 99.9 °F 54.3 °F 21% 29.81 in 6.2 mi East 8.1 mph - N/A   Clear
1:55 PM 101.7 °F - 47.1 °F 16% 29.80 in 6.2 mi Calm Calm - N/A   Clear
2:55 PM 102.0 °F - 45.1 °F 14% 29.79 in 6.2 mi East 10.4 mph - N/A   Clear
3:55 PM 100.4 °F - 42.3 °F 14% 29.80 in 6.2 mi East 12.7 mph - N/A   Clear
4:55 PM 97.5 °F - 49.3 °F 19% 29.81 in 6.2 mi East 9.2 mph - N/A   Clear
5:55 PM 92.3 °F 93.4 °F 63.5 °F 38% 29.81 in 6.2 mi East 9.2 mph - N/A   Clear
6:55 PM 87.8 °F 97.1 °F 74.7 °F 65% 29.83 in 6.2 mi East 10.4 mph - N/A   Clear
7:55 PM 85.5 °F 93.4 °F 74.1 °F 69% 29.85 in 6.2 mi Variable 4.6 mph - N/A   Clear
8:55 PM 84.0 °F 91.9 °F 74.8 °F 74% 29.86 in 6.2 mi North 4.6 mph - N/A   Clear
9:55 PM 81.0 °F 84.6 °F 70.2 °F 70% 29.85 in 6.2 mi NNW 4.6 mph - N/A   Clear
10:55 PM 79.2 °F - 70.2 °F 74% 29.84 in 6.2 mi Calm Calm - N/A   Clear
11:55 PM 78.8 °F - 70.0 °F 74% 29.83 in 6.2 mi Calm Calm - N/A   Clear